CZ-6A DEB

Satellite information

Favourite Embed

Satellite Type and Status

DEBRISIN ORBIT

Key statistics

Satellite CZ-6A DEB at a glance.

Uptime

1129

Days in orbit

Revolutions

≈ 14.7

Per day

Orbit

SSO

Sun Synchronous Orbit

Inclination

98.6

Latest

Satellite identification and parameters

Extended collection of information and parameters for CZ-6A DEB.

Object identification

Identified? True

Debris? True

Object name: CZ-6A DEB

International designator: 2022-151WY

Object number (NORAD): 55231

Object ID (CCSDS): 55231

Country: PEOPLES REPUBLIC OF CHINA (PRC)

Current information (Y/N): Y

RCS size: SMALL

Orbital parameters

Period: 97.759 minutes

Inclination: 98.6358 deg

SMA: 7029.612 km

Apoapsis: 708.294 km

Periapsis: 594.66 km

RAAN: 50.3493 deg

Eccentricy: 0.0080825

Argument of periapsis: 94.8924 deg

Mean anomaly: 266.1516 deg

Mean motion: 14.73010147 rev/day

Mean motion (dot): 0.00014584 rev/day2

B* drag term: 0.0021602379 1/REarth

Two-line elements (TLE)

Creation date: Dec. 14, 2025, 3:07 a.m.

Reference frame: TEME

Reference center: EARTH

Epoch: Dec. 13, 2025, 3:03 p.m. UTC

TLE line 0: 0 CZ-6A DEB

TLE line 1: 1 55231U 22151WY 25347.62749596 .00014584 00000-0 21602-2 0 9991

TLE line 2: 2 55231 98.6358 50.3493 0080825 94.8924 266.1516 14.73010147158324

Live tracking on map

Real-time ground track for satellite CZ-6A DEB.

In-orbit conjunctions

A list of the most updated potential collisions computed for object CZ-6A DEB.

Target Orbit TCA Probability of collision Miss distance Type
CZ-2C R/B SSO 2025-02-07 11:23:07 0.0001078337 253.0 (m) ROCKET BODY
CZ-6A DEB SSO 2025-01-14 09:25:32 0.0001322362 89.0 (m) DEBRIS

Associated space launch

Chinese satellite reported for atmospheric/ocean/environmental/spatial parameter research purposes, details TBD.

CZ-6A DEB was lifted into orbit during the mission ‘Long March 6A | Yunhai 3’, on board a Long March 6A space rocket.

The launch took place on Nov. 11, 2022, 10:52 p.m. from Launch Complex 9A.

For more information about the launch, click the button.

Launch to space Long March 6A | Yunhai 3
Long March 6A | Yunhai 3

Agency: N/A

Status: Launch Successful

Launch date: Nov. 11, 2022, 10:52 p.m. UTC

Rocket: Long March 6A

Launch pad: Launch Complex 9A

Location: Taiyuan Satellite Launch Center, People's Republic of China

...

Latest news about this satellite

There are no fresh news available about this satellite. Check back as we update our databases every day.


Newsletter sign-up

Weekly statistics, charts and insights to help you stay on top of the space industry.